TimeCST,TemperatureF,Dew PointF,Humidity,Sea Level PressureIn,VisibilityMPH,Wind Direction,Wind SpeedMPH,Gust SpeedMPH,PrecipitationIn,Events,Conditions,WindDirDegrees,DateUTC
12:53 AM,46.0,35.1,66,30.23,10.0,South,5.8,-,N/A,,Clear,170,2012-11-30 06:53:00
1:53 AM,45.0,35.1,68,30.23,10.0,South,4.6,-,N/A,,Clear,170,2012-11-30 07:53:00
2:53 AM,44.1,35.1,71,30.23,10.0,SSE,4.6,-,N/A,,Clear,160,2012-11-30 08:53:00
3:53 AM,37.9,33.1,83,30.23,10.0,Calm,Calm,-,N/A,,Clear,0,2012-11-30 09:53:00
4:53 AM,39.9,34.0,79,30.22,10.0,Calm,Calm,-,N/A,,Clear,0,2012-11-30 10:53:00
5:53 AM,37.0,33.1,86,30.24,10.0,Calm,Calm,-,N/A,,Clear,0,2012-11-30 11:53:00
6:53 AM,39.9,35.1,83,30.26,10.0,Calm,Calm,-,N/A,,Clear,0,2012-11-30 12:53:00
7:32 AM,41.0,35.6,81,30.26,10.0,Calm,Calm,-,N/A,,Scattered Clouds,0,2012-11-30 13:32:00
7:41 AM,42.8,37.4,81,30.26,10.0,Calm,Calm,-,N/A,,Mostly Cloudy,0,2012-11-30 13:41:00
7:53 AM,43.0,37.0,80,30.26,10.0,Calm,Calm,-,N/A,,Scattered Clouds,0,2012-11-30 13:53:00
8:53 AM,48.9,43.0,80,30.27,10.0,Calm,Calm,-,N/A,,Clear,0,2012-11-30 14:53:00
9:53 AM,55.0,46.0,72,30.27,10.0,SE,4.6,-,N/A,,Clear,130,2012-11-30 15:53:00
10:53 AM,61.0,48.9,64,30.26,10.0,SE,6.9,-,N/A,,Partly Cloudy,140,2012-11-30 16:53:00
11:53 AM,64.0,50.0,60,30.23,10.0,SSW,4.6,-,N/A,,Scattered Clouds,210,2012-11-30 17:53:00
12:53 PM,66.9,50.0,54,30.19,10.0,South,6.9,-,N/A,,Clear,190,2012-11-30 18:53:00
1:53 PM,66.9,48.9,52,30.18,10.0,East,4.6,-,N/A,,Scattered Clouds,90,2012-11-30 19:53:00
2:53 PM,68.0,50.0,52,30.17,10.0,Variable,4.6,-,N/A,,Clear,0,2012-11-30 20:53:00
3:53 PM,68.0,50.0,52,30.17,10.0,SE,6.9,-,N/A,,Clear,140,2012-11-30 21:53:00
4:53 PM,64.0,51.1,63,30.16,10.0,ESE,5.8,-,N/A,,Clear,110,2012-11-30 22:53:00
5:53 PM,60.1,51.1,72,30.17,10.0,South,3.5,-,N/A,,Clear,180,2012-11-30 23:53:00
6:53 PM,59.0,51.1,75,30.18,10.0,SSE,3.5,-,N/A,,Clear,150,2012-12-01 00:53:00
7:53 PM,57.0,51.1,81,30.18,10.0,Calm,Calm,-,N/A,,Clear,0,2012-12-01 01:53:00
8:53 PM,55.0,51.1,86,30.19,10.0,South,3.5,-,N/A,,Clear,170,2012-12-01 02:53:00
10:53 PM,55.9,51.1,84,30.18,10.0,SE,4.6,-,N/A,,Overcast,140,2012-12-01 04:53:00
11:53 PM,55.9,50.0,80,30.18,10.0,SSE,3.5,-,N/A,,Scattered Clouds,150,2012-12-01 05:53:00